College Park, MD

11:26 AM EDT on June 25, 2017 (GMT -0400)
College Park

Weather History for KCGS - March, 2012

Change the Weather History Date:

Saturday, March 31, 2012

  Actual Average Record
Temperature  
Mean Temperature 52 °F -  
Max Temperature 62 °F 60 °F 86 °F (1986)
Min Temperature 42 °F 42 °F 22 °F (1964)
Degree Days  
Heating Degree Days 13    
Growing Degree Days 2 (Base 50)    
Moisture  
Dew Point 44 °F    
Average Humidity 73    
Maximum Humidity 85    
Minimum Humidity 56    
Precipitation  
Precipitation 0.00 in - - ()
Sea Level Pressure  
Sea Level Pressure 29.80 in    
Wind  
Wind Speed 3 mph (NE)    
Max Wind Speed 12 mph    
Max Gust Speed 20 mph    
Visibility 10 miles    
Events      
Averages and records for this station are not official NWS values.
T = Trace of Precipitation, MM = Missing Value Source: NWS Daily Summary

Daily Weather History Graph

Daily Weather History Graph

Search for Another Location

Airport or City:

Trip Planner

Search our weather history database for the weather conditions in past years. The results will help you decide how hot, cold, wet, or windy it might be!

Date:

Astronomy

Mar. 31, 2012 Rise Set
Actual Time 6:53 AM EDT 7:30 PM EDT
Civil Twilight 6:26 AM EDT 7:57 PM EDT
Nautical Twilight 5:54 AM EDT 8:29 PM EDT
Astronomical Twilight 5:22 AM EDT 9:02 PM EDT
Moon 12:59 PM EDT (3/31) 2:45 AM EDT (3/31)
Length of Visible Light 13h 31m
Length of Day
12h 37m
First Quarter, 59% of the Moon is Illuminated
Mar 31
First Quarter
Apr 6
Full
Apr 13
Last Quarter
Apr 21
New
Apr 29
First Quarter

Hourly Weather History & Observations

Time (EDT) Temp. Windchill Dew Point Humidity Pressure Visibility Wind Dir Wind Speed Gust Speed Precip Events Conditions
12:15 AM 42.6 °F - 37.4 °F 82% 29.85 in 10.0 mi Calm Calm - N/A   Clear
12:35 AM 42.1 °F 40.2 °F 37.2 °F 83% 29.85 in 10.0 mi North 3.5 mph - N/A   Clear
1:00 AM 43.9 °F - 38.3 °F 81% 29.85 in 10.0 mi Calm Calm - N/A   Mostly Cloudy
1:20 AM 43.7 °F - 38.8 °F 83% 29.84 in 10.0 mi Calm Calm - N/A   Mostly Cloudy
1:40 AM 45.0 °F - 39.9 °F 82% 29.84 in 10.0 mi Calm Calm - N/A   Overcast
2:00 AM 45.9 °F 42.3 °F 41.2 °F 84% 29.84 in 10.0 mi North 6.9 mph - N/A   Overcast
2:25 AM 46.8 °F - 41.0 °F 80% 29.85 in 10.0 mi NNW 6.9 mph - N/A   Overcast
2:45 AM 48.6 °F - 42.3 °F 79% 29.88 in 10.0 mi North 5.8 mph - N/A   Overcast
3:05 AM 49.3 °F - 43.0 °F 79% 29.86 in 10.0 mi Calm Calm - N/A   Overcast
3:30 AM 49.1 °F - 42.4 °F 78% 29.80 in 10.0 mi SSE 3.5 mph - N/A   Scattered Clouds
3:50 AM 48.2 °F - 42.3 °F 80% 29.78 in 10.0 mi Calm Calm - N/A   Clear
4:10 AM 47.7 °F - 42.1 °F 81% 29.78 in 10.0 mi North 4.6 mph - N/A   Clear
4:30 AM 47.5 °F - 42.8 °F 84% 29.78 in 10.0 mi Calm Calm - N/A   Scattered Clouds
4:55 AM 47.3 °F - 43.0 °F 85% 29.78 in 10.0 mi Calm Calm - N/A   Mostly Cloudy
5:15 AM 47.7 °F - 43.0 °F 84% 29.76 in 10.0 mi East 3.5 mph - N/A   Overcast
5:35 AM 48.2 °F - 43.7 °F 84% 29.76 in 10.0 mi Calm Calm - N/A   Overcast
5:55 AM 48.7 °F - 44.2 °F 84% 29.76 in 10.0 mi NNE 3.5 mph - N/A   Overcast
6:20 AM 48.9 °F - 44.4 °F 84% 29.77 in 10.0 mi North 5.8 mph - N/A   Overcast
6:40 AM 49.1 °F - 43.9 °F 82% 29.78 in 10.0 mi NNE 3.5 mph - N/A   Overcast
7:00 AM 49.1 °F - 43.5 °F 81% 29.78 in 10.0 mi Calm Calm - N/A   Overcast
7:45 AM 49.3 °F - 43.2 °F 79% 29.79 in 10.0 mi ENE 3.5 mph - N/A   Overcast
8:05 AM 49.6 °F - 43.2 °F 78% 29.79 in 10.0 mi ENE 3.5 mph - N/A   Overcast
8:25 AM 50.4 °F - 43.5 °F 77% 29.80 in 10.0 mi NNE 3.5 mph - N/A   Overcast
8:30 AM 50.4 °F - 43.9 °F 78% 29.80 in 10.0 mi East 3.5 mph - N/A   Overcast
9:10 AM 51.4 °F - 44.2 °F 76% 29.80 in 10.0 mi Calm Calm - N/A   Overcast
9:30 AM 52.7 °F - 45.3 °F 76% 29.79 in 10.0 mi Calm Calm - N/A   Overcast
9:50 AM 52.7 °F - 45.7 °F 77% 29.80 in 10.0 mi Calm Calm - N/A   Overcast
10:15 AM 52.9 °F - 45.9 °F 77% 29.79 in 10.0 mi East 3.5 mph - N/A   Overcast
10:35 AM 54.1 °F - 45.9 °F 74% 29.79 in 10.0 mi Calm Calm - N/A   Overcast
10:55 AM 56.3 °F - 46.8 °F 70% 29.79 in 10.0 mi North 3.5 mph - N/A   Scattered Clouds
11:15 AM 56.7 °F - 46.8 °F 69% 29.79 in 10.0 mi North 5.8 mph - N/A   Scattered Clouds
11:40 AM 57.4 °F - 47.1 °F 69% 29.79 in 10.0 mi North 6.9 mph - N/A   Scattered Clouds
12:40 PM 60.3 °F - 47.1 °F 62% 29.79 in 7.0 mi North 8.1 mph - N/A   Clear
1:05 PM 61.2 °F - 46.6 °F 59% 29.78 in 7.0 mi NE 6.9 mph - N/A   Scattered Clouds
1:25 PM 60.4 °F - 46.0 °F 59% 29.78 in 7.0 mi ENE 6.9 mph - N/A   Scattered Clouds
1:45 PM 60.1 °F - 46.0 °F 60% 29.78 in 10.0 mi ENE 6.9 mph - N/A   Overcast
2:30 PM 60.8 °F - 46.6 °F 59% 29.78 in 7.0 mi NE 4.6 mph - N/A   Overcast
2:50 PM 61.5 °F - 46.8 °F 58% 29.78 in 10.0 mi NE 4.6 mph - N/A   Overcast
3:10 PM 60.6 °F - 46.8 °F 60% 29.78 in 10.0 mi ENE 8.1 mph - N/A   Overcast
3:30 PM 60.1 °F - 46.2 °F 60% 29.78 in 10.0 mi NE 5.8 mph - N/A   Overcast
3:55 PM 60.3 °F - 46.6 °F 61% 29.79 in 10.0 mi North 5.8 mph - N/A   Overcast
4:15 PM 62.1 °F - 46.0 °F 56% 29.79 in 10.0 mi NE 8.1 mph - N/A   Overcast
4:35 PM 59.4 °F - 45.5 °F 60% 29.79 in 10.0 mi NE 9.2 mph 17.3 mph N/A   Mostly Cloudy
4:55 PM 58.5 °F - 44.6 °F 60% 29.80 in 10.0 mi ENE 11.5 mph 19.6 mph N/A   Overcast
5:20 PM 56.5 °F - 44.2 °F 64% 29.81 in 10.0 mi East 8.1 mph 17.3 mph N/A   Overcast
5:40 PM 55.4 °F - 43.7 °F 65% 29.81 in 10.0 mi ENE 6.9 mph - N/A   Overcast
6:00 PM 54.9 °F - 42.8 °F 64% 29.82 in 10.0 mi NE 9.2 mph 16.1 mph N/A   Overcast
6:20 PM 54.1 °F - 42.6 °F 65% 29.83 in 10.0 mi NNE 6.9 mph - N/A   Overcast
6:45 PM 52.7 °F - 42.1 °F 67% 29.84 in 10.0 mi NNE 6.9 mph - N/A   Overcast
7:00 PM 52.2 °F - 42.1 °F 69% 29.85 in 10.0 mi NE 4.6 mph - N/A   Overcast
7:45 PM 50.9 °F - 41.4 °F 70% 29.87 in 10.0 mi ENE 6.9 mph - N/A   Overcast
8:10 PM 50.2 °F - 40.6 °F 70% 29.87 in 10.0 mi NE 6.9 mph - N/A   Overcast
8:30 PM 50.0 °F - 40.5 °F 70% 29.88 in 10.0 mi NE 4.6 mph - N/A   Overcast
8:50 PM 49.6 °F - 40.1 °F 70% 29.89 in 10.0 mi NE 4.6 mph - N/A   Overcast
9:15 PM 49.3 °F - 39.9 °F 70% 29.90 in 10.0 mi NE 4.6 mph - N/A   Overcast
9:35 PM 49.1 °F - 39.7 °F 70% 29.91 in 10.0 mi NE 5.8 mph - N/A   Overcast
9:55 PM 49.1 °F - 40.1 °F 71% 29.92 in 10.0 mi ENE 4.6 mph - N/A   Overcast
10:15 PM 48.7 °F - 39.7 °F 71% 29.92 in 10.0 mi ENE 8.1 mph - N/A   Overcast
10:40 PM 48.6 °F - 39.6 °F 71% 29.91 in 10.0 mi Calm Calm - N/A   Overcast
11:00 PM 48.6 °F - 39.6 °F 71% 29.91 in 10.0 mi ENE 5.8 mph - N/A   Overcast
11:20 PM 48.4 °F - 39.6 °F 72% 29.91 in 10.0 mi NE 3.5 mph - N/A   Overcast
11:40 PM 48.2 °F - 39.2 °F 71% 29.91 in 10.0 mi Calm Calm - N/A   Overcast